Temp
-5 -5 -4 -4 -3 -4 -4 -4 -4 -4 -4 -4 -4 -4 -4 -4 -4 -5 -5 -5 -5 -5 -5 -5 -5 -5 -5 -6 -6 -6 -6 -6 -7 -7 -7 -7 -7 -7 -8 -7 -7 -7 -7 -7 -7 -7 -7 -8 -7
-5 -4 -4 -4 -4 -4 -4 -4 -4 -4 -4 -4 -4 -4 -5 -4 -5 -5 -5 -5 -5 -5 -5 -5 -5 -5 -6 -6 -6 -6 -7 -7 -7 -7 -8 -8 -8 -8 -8 -8 -7 -7 -8 -8 -8 -8 -7 -8 -8
-4 -4 -4 -2 -4 -5 -5 -4 -4 -4 -4 -4 -4 -4 -4 -5 -5 -5 -5 -5 -5 -5 -5 -5 -5 -5 -6 -6 -6 -6 -7 -7 -7 -8 -8 -8 -8 -8 -8 -8 -8 -8 -8 -8 -8 -8 -8 -8 -8
-4 -4 -5 -5 -5 -4 -5 -4 -5 -4 -4 -4 -4 -4 -4 -4 -4 -5 -5 -5 -5 -5 -5 -5 -5 -6 -6 -6 -6 -6 -7 -7 -8 -8 -9 -9 -9 -9 -9 -8 -8 -8 -8 -8 -9 -9 -9 -9 -9
-4 -4 -5 -6 -4 -4 -4 -4 -4 -4 -5 -5 -5 -5 -4 -5 -5 -5 -5 -5 -5 -5 -5 -5 -6 -6 -6 -6 -6 -7 -7 -8 -8 -8 -9 -9 -9 -9 -9 -9 -9 -9 -9 -9 -8 -8 -8 -8 -9
-5 -4 -5 -6 -4 -4 -4 -4 -4 -4 -5 -4 -4 -4 -5 -5 -5 -5 -5 -5 -5 -5 -5 -6 -6 -6 -6 -6 -7 -7 -7 -8 -7 -8 -8 -8 -9 -9 -9 -8 -9 -9 -8 -8 -8 -8 -8 -8 -8
-5 -4 -7 -5 -6 -4 -4 -4 -4 -4 -5 -4 -4 -4 -5 -5 -5 -5 -5 -5 -5 -5 -6 -6 -5 -6 -6 -6 -7 -7 -7 -7 -7 -7 -7 -8 -9 -8 -8 -8 -8 -8 -9 -8 -8 -8 -8 -8 -8
-5 -5 -7 -7 -6 -5 -4 -4 -4 -4 -4 -4 -4 -4 -4 -5 -4 -5 -4 -5 -5 -5 -5 -5 -5 -6 -6 -7 -6 -6 -7 -7 -6 -7 -7 -8 -8 -8 -8 -7 -7 -8 -8 -8 -8 -7 -8 -8 -8
-6 -6 -6 -7 -5 -5 -4 -4 -4 -4 -4 -4 -5 -4 -4 -4 -4 -4 -4 -4 -4 -5 -5 -5 -5 -6 -6 -6 -6 -6 -6 -6 -6 -7 -6 -7 -7 -7 -8 -8 -8 -8 -8 -8 -7 -7 -8 -8 -7
-6 -6 -7 -8 -6 -5 -4 -4 -4 -4 -4 -4 -4 -4 -4 -4 -4 -4 -4 -4 -4 -5 -5 -5 -5 -6 -6 -6 -6 -6 -6 -6 -6 -6 -6 -6 -7 -7 -7 -8 -8 -8 -8 -8 -8 -8 -8 -8 -8
-8 -7 -7 -8 -5 -4 -4 -4 -4 -4 -4 -4 -4 -5 -4 -4 -4 -4 -4 -4 -5 -5 -4 -5 -5 -5 -5 -5 -6 -6 -6 -6 -6 -7 -7 -7 -7 -7 -7 -7 -7 -7 -8 -8 -8 -8 -8 -8 -8
-6 -6 -8 -5 -4 -4 -4 -3 -3 -4 -3 -3 -4 -4 -5 -5 -4 -4 -4 -4 -5 -4 -4 -5 -5 -5 -6 -6 -6 -6 -6 -6 -6 -6 -6 -7 -7 -7 -7 -7 -7 -8 -8 -8 -8 -8 -8 -8 -8
-8 -7 -7 -5 -5 -4 -4 -4 -4 -4 -4 -4 -4 -4 -5 -5 -5 -5 -5 -5 -5 -4 -5 -5 -5 -5 -5 -5 -5 -6 -6 -6 -6 -6 -7 -7 -7 -7 -7 -7 -7 -8 -8 -8 -8 -8 -8 -8 -8
-7 -8 -6 -5 -5 -4 -4 -4 -4 -4 -3 -3 -4 -4 -5 -5 -5 -5 -5 -5 -4 -4 -5 -5 -5 -5 -5 -5 -5 -4 -4 -5 -5 -6 -6 -7 -7 -7 -7 -8 -8 -8 -8 -8 -8 -8 -8 -8 -8
-9 -8 -6 -5 -4 -4 -5 -4 -5 -4 -4 -4 -4 -4 -4 -5 -5 -5 -5 -4 -4 -5 -5 -5 -5 -5 -4 -4 -4 -4 -4 -4 -5 -5 -6 -6 -7 -7 -7 -8 -8 -8 -8 -8 -8 -8 -8 -8 -8
-9 -8 -7 -6 -4 -3 -4 -4 -5 -4 -5 -5 -5 -5 -4 -5 -5 -5 -5 -5 -5 -4 -4 -4 -5 -4 -4 -4 -4 -4 -4 -4 -5 -5 -6 -7 -7 -7 -7 -8 -8 -8 -8 -8 -8 -8 -8 -8 -8
-8 -7 -7 -6 -7 -4 -4 -5 -4 -5 -5 -5 -5 -5 -5 -4 -5 -4 -5 -5 -5 -4 -4 -4 -4 -4 -4 -3 -4 -3 -4 -5 -5 -6 -7 -7 -7 -7 -7 -8 -8 -8 -8 -8 -8 -8 -8 -8 -8
-6 -7 -6 -7 -7 -5 -7 -6 -4 -5 -5 -5 -5 -5 -5 -5 -5 -4 -5 -5 -5 -4 -4 -4 -4 -3 -4 -4 -4 -4 -4 -5 -6 -6 -7 -7 -8 -8 -8 -8 -8 -8 -8 -8 -8 -8 -8 -8 -7
-7 -7 -7 -7 -8 -6 -8 -8 -4 -5 -5 -5 -5 -5 -5 -5 -4 -5 -5 -5 -4 -4 -4 -4 -3 -3 -3 -4 -4 -4 -4 -5 -6 -7 -7 -8 -8 -8 -8 -8 -9 -9 -8 -8 -8 -8 -8 -8 -8
-7 -7 -7 -7 -7 -7 -8 -7 -8 -5 -5 -5 -5 -5 -5 -5 -5 -5 -5 -5 -4 -4 -3 -3 -3 -3 -3 -3 -4 -4 -4 -5 -6 -7 -8 -8 -8 -9 -9 -9 -9 -9 -9 -9 -9 -8 -8 -8 -8
-8 -7 -7 -7 -7 -7 -6 -6 -6 -5 -5 -5 -5 -5 -5 -5 -5 -5 -5 -4 -4 -3 -3 -3 -3 -3 -3 -4 -4 -4 -5 -5 -6 -7 -8 -8 -9 -9 -10 -10 -10 -9 -9 -9 -9 -9 -9 -9 -8
-8 -8 -7 -8 -7 -7 -7 -6 -6 -6 -5 -5 -4 -4 -4 -4 -4 -4 -4 -4 -3 -3 -3 -2 -3 -3 -3 -3 -4 -4 -5 -6 -6 -7 -8 -9 -9 -9 -9 -9 -9 -9 -9 -9 -9 -9 -9 -9 -8
-8 -8 -7 -8 -7 -7 -6 -6 -6 -6 -5 -4 -4 -4 -4 -3 -3 -3 -4 -4 -3 -3 -3 -3 -3 -3 -3 -3 -4 -5 -5 -6 -7 -8 -8 -9 -9 -9 -9 -9 -9 -9 -9 -9 -9 -9 -9 -8 -8
-8 -8 -7 -8 -7 -6 -6 -6 -5 -5 -5 -4 -4 -4 -4 -4 -3 -3 -3 -3 -3 -2 -2 -2 -2 -3 -3 -4 -4 -5 -5 -6 -7 -7 -8 -8 -9 -9 -9 -9 -9 -9 -9 -9 -9 -9 -9 -9 -9
-9 -8 -7 -7 -7 -6 -6 -6 -6 -6 -6 -5 -4 -4 -4 -4 -3 -4 -3 -3 -3 -3 -2 -2 -3 -3 -3 -4 -4 -5 -6 -6 -6 -7 -8 -9 -9 -9 -9 -9 -9 -9 -9 -9 -9 -9 -9 -9 -9
-9 -8 -7 -7 -6 -5 -6 -6 -6 -6 -6 -5 -4 -4 -3 -4 -3 -3 -3 -3 -2 -2 -2 -2 -3 -3 -3 -4 -4 -5 -5 -6 -6 -7 -8 -9 -9 -9 -9 -9 -9 -9 -9 -9 -9 -9 -9 -9 -9
-8 -8 -7 -6 -6 -6 -7 -6 -6 -6 -6 -6 -5 -3 -3 -4 -4 -3 -2 -2 -2 -2 -2 -3 -3 -3 -3 -4 -4 -5 -5 -6 -6 -7 -8 -9 -9 -9 -9 -9 -9 -9 -9 -9 -9 -9 -9 -9 -9
-8 -8 -8 -7 -7 -6 -7 -6 -5 -6 -6 -6 -5 -4 -4 -3 -3 -3 -3 -2 -2 -2 -2 -2 -3 -3 -3 -4 -4 -5 -5 -6 -7 -8 -8 -9 -9 -9 -9 -9 -9 -9 -9 -9 -9 -9 -9 -8 -8
-7 -8 -8 -7 -6 -7 -7 -6 -5 -6 -6 -6 -4 -4 -3 -3 -3 -3 -3 -2 -2 -2 -2 -3 -3 -3 -3 -4 -4 -5 -5 -6 -7 -8 -9 -9 -9 -9 -9 -9 -9 -9 -9 -9 -9 -9 -8 -8 -8
-7 -8 -8 -7 -7 -6 -7 -6 -6 -5 -6 -5 -4 -4 -3 -3 -3 -3 -3 -2 -2 -2 -3 -3 -3 -3 -3 -4 -4 -5 -5 -6 -7 -8 -9 -9 -9 -9 -9 -9 -9 -9 -9 -9 -9 -9 -8 -8 -8
Height
5893 5894 5896 5895 5897 5894 5894 5895 5893 5895 5896 5897 5898 5898 5899 5900 5901 5904 5902 5901 5902 5904 5904 5906 5906 5906 5905 5905 5905 5904 5904 5903 5902 5901 5899 5898 5897 5896 5896 5895 5895 5894 5893 5892 5892 5891 5890 5888 5887
5896 5897 5898 5898 5895 5895 5897 5897 5896 5896 5898 5899 5899 5900 5900 5901 5901 5902 5903 5903 5904 5905 5906 5906 5906 5905 5905 5905 5905 5905 5904 5903 5902 5901 5900 5899 5899 5898 5897 5896 5896 5895 5894 5893 5892 5891 5890 5889 5888
5898 5898 5900 5888 5897 5898 5897 5900 5898 5898 5899 5900 5901 5900 5902 5902 5902 5903 5904 5905 5907 5907 5908 5907 5907 5907 5906 5906 5905 5904 5904 5903 5903 5902 5901 5899 5899 5898 5897 5897 5897 5895 5894 5893 5892 5890 5890 5889 5888
5901 5902 5902 5897 5899 5901 5900 5901 5901 5900 5900 5902 5902 5902 5903 5904 5904 5905 5906 5906 5907 5908 5908 5909 5908 5908 5909 5907 5906 5905 5905 5904 5904 5903 5902 5900 5899 5898 5897 5897 5897 5896 5894 5893 5891 5888 5886 5886 5886
5903 5896 5896 5904 5903 5902 5902 5902 5901 5901 5902 5902 5902 5903 5904 5904 5905 5906 5907 5908 5908 5909 5910 5909 5909 5910 5909 5908 5907 5907 5906 5905 5905 5904 5903 5901 5900 5900 5899 5898 5897 5895 5894 5892 5890 5886 5884 5884 5884
5903 5901 5901 5905 5904 5903 5903 5903 5903 5903 5903 5904 5904 5904 5905 5905 5905 5906 5908 5909 5910 5911 5911 5911 5911 5910 5910 5909 5909 5908 5908 5907 5906 5906 5904 5903 5901 5900 5899 5898 5896 5895 5895 5894 5891 5887 5884 5884 5884
5903 5902 5905 5904 5906 5904 5905 5904 5903 5904 5904 5904 5904 5904 5906 5906 5907 5908 5909 5910 5911 5911 5912 5911 5911 5911 5912 5911 5911 5910 5909 5909 5909 5908 5906 5904 5903 5901 5900 5895 5895 5895 5895 5894 5892 5890 5888 5886 5885
5904 5907 5910 5909 5907 5904 5905 5905 5904 5905 5905 5905 5905 5906 5907 5909 5908 5909 5910 5911 5913 5912 5912 5912 5913 5913 5913 5914 5913 5912 5911 5910 5911 5910 5908 5906 5904 5902 5901 5899 5898 5897 5897 5896 5894 5893 5891 5889 5888
5905 5907 5910 5910 5905 5904 5905 5904 5904 5903 5905 5906 5906 5907 5908 5909 5909 5910 5912 5913 5913 5912 5913 5914 5914 5914 5915 5915 5914 5913 5912 5912 5912 5911 5910 5909 5907 5905 5903 5901 5900 5900 5899 5898 5897 5895 5894 5892 5891
5906 5912 5910 5909 5908 5903 5903 5903 5904 5905 5905 5906 5906 5907 5908 5910 5912 5912 5913 5913 5913 5913 5914 5915 5916 5916 5917 5916 5916 5915 5914 5914 5912 5912 5912 5911 5909 5908 5906 5904 5902 5901 5900 5899 5898 5897 5896 5895 5893
5907 5908 5908 5906 5904 5903 5903 5903 5904 5905 5905 5905 5906 5907 5909 5910 5912 5913 5913 5914 5914 5915 5916 5916 5918 5918 5918 5918 5917 5917 5916 5915 5915 5915 5915 5913 5912 5914 5910 5907 5905 5903 5902 5901 5900 5898 5897 5897 5895
5903 5905 5905 5902 5904 5904 5904 5904 5904 5906 5906 5905 5905 5907 5908 5910 5911 5913 5915 5914 5916 5917 5917 5918 5919 5920 5920 5920 5919 5918 5917 5917 5917 5918 5917 5916 5914 5912 5911 5909 5907 5905 5903 5902 5901 5900 5898 5898 5897
5910 5903 5902 5902 5903 5904 5905 5905 5906 5906 5906 5905 5905 5905 5907 5909 5910 5913 5914 5915 5917 5917 5918 5919 5920 5921 5921 5922 5920 5919 5918 5919 5919 5920 5919 5918 5916 5914 5913 5911 5908 5907 5905 5904 5903 5901 5900 5900 5899
5905 5903 5903 5903 5903 5904 5905 5906 5905 5905 5905 5905 5905 5905 5906 5907 5909 5911 5914 5916 5916 5918 5919 5920 5922 5923 5924 5924 5922 5921 5920 5921 5922 5922 5921 5920 5918 5916 5914 5913 5911 5909 5908 5907 5905 5904 5903 5902 5901
5903 5903 5904 5906 5905 5904 5905 5906 5906 5905 5905 5905 5905 5905 5905 5906 5907 5910 5913 5916 5917 5919 5920 5922 5923 5925 5926 5926 5925 5925 5924 5925 5925 5925 5924 5922 5921 5919 5918 5915 5913 5912 5910 5909 5908 5906 5905 5904 5902
5905 5909 5910 5908 5908 5906 5906 5904 5905 5905 5905 5905 5904 5904 5904 5904 5906 5911 5913 5916 5918 5920 5922 5923 5925 5927 5928 5928 5928 5928 5928 5927 5927 5927 5926 5924 5922 5921 5919 5918 5915 5914 5914 5912 5911 5909 5906 5905 5904
5906 5910 5907 5886 5907 5905 5904 5894 5904 5904 5905 5904 5903 5902 5902 5903 5906 5911 5913 5915 5918 5921 5923 5925 5927 5929 5930 5931 5931 5932 5931 5930 5929 5928 5927 5926 5925 5924 5922 5920 5918 5917 5915 5913 5912 5910 5908 5906 5904
5906 5912 5908 5916 5908 5903 5904 5904 5904 5904 5903 5903 5902 5902 5901 5902 5905 5909 5911 5914 5918 5921 5924 5926 5928 5930 5932 5934 5934 5934 5933 5932 5931 5930 5929 5929 5928 5926 5924 5923 5921 5919 5917 5915 5912 5909 5907 5906 5904
5899 5902 5909 5910 5907 5903 5907 5910 5904 5904 5903 5903 5901 5901 5901 5903 5907 5909 5911 5914 5918 5921 5924 5927 5930 5932 5934 5935 5936 5936 5935 5934 5933 5932 5932 5931 5929 5928 5927 5925 5924 5921 5919 5917 5914 5912 5909 5907 5905
5892 5902 5907 5908 5907 5904 5907 5911 5907 5904 5904 5903 5902 5901 5902 5904 5906 5909 5911 5914 5918 5922 5925 5928 5931 5933 5935 5937 5938 5938 5937 5936 5936 5935 5934 5933 5932 5931 5930 5928 5926 5924 5922 5919 5916 5914 5911 5909 5906
5898 5903 5907 5907 5903 5903 5905 5907 5907 5904 5904 5904 5903 5902 5903 5904 5906 5909 5911 5915 5919 5923 5926 5930 5933 5935 5936 5938 5939 5939 5939 5938 5938 5936 5936 5935 5934 5934 5932 5930 5929 5926 5925 5922 5919 5916 5913 5910 5907
5895 5899 5902 5904 5906 5908 5904 5908 5901 5903 5904 5904 5903 5903 5904 5906 5907 5910 5913 5916 5920 5924 5927 5931 5934 5936 5938 5940 5940 5940 5940 5939 5939 5938 5937 5937 5937 5936 5934 5932 5931 5929 5926 5924 5921 5918 5915 5911 5908
5892 5898 5901 5900 5902 5905 5902 5907 5909 5902 5902 5903 5903 5904 5905 5907 5908 5911 5914 5917 5921 5925 5928 5932 5935 5937 5939 5941 5941 5941 5941 5940 5940 5939 5939 5939 5938 5937 5936 5934 5932 5930 5927 5924 5922 5918 5914 5911 5908
5888 5894 5896 5898 5900 5902 5904 5907 5908 5904 5901 5902 5902 5903 5905 5907 5908 5911 5914 5917 5921 5925 5929 5933 5935 5937 5939 5941 5942 5942 5942 5941 5941 5941 5941 5940 5939 5938 5936 5934 5932 5930 5928 5925 5922 5919 5915 5910 5907
5880 5889 5893 5896 5897 5898 5899 5901 5904 5891 5900 5900 5901 5902 5904 5906 5908 5910 5912 5917 5922 5926 5930 5934 5936 5938 5939 5941 5942 5942 5942 5942 5942 5942 5941 5941 5940 5939 5937 5935 5933 5931 5928 5925 5922 5918 5914 5910 5906
5872 5883 5888 5892 5895 5897 5892 5895 5898 5884 5902 5899 5899 5901 5903 5905 5907 5908 5910 5915 5921 5926 5930 5934 5936 5938 5939 5940 5941 5942 5942 5942 5942 5942 5941 5941 5940 5939 5938 5936 5933 5931 5928 5925 5921 5918 5914 5909 5904
5868 5871 5885 5889 5886 5884 5880 5892 5896 5894 5896 5897 5898 5899 5902 5904 5907 5909 5912 5916 5921 5926 5930 5933 5935 5937 5938 5939 5940 5941 5941 5942 5942 5942 5941 5941 5940 5939 5938 5936 5934 5931 5927 5924 5920 5916 5911 5906 5902
5861 5873 5875 5879 5884 5876 5879 5880 5891 5892 5895 5894 5895 5896 5900 5903 5906 5910 5913 5917 5922 5925 5929 5932 5935 5936 5938 5939 5939 5940 5941 5941 5942 5942 5941 5941 5940 5939 5937 5936 5933 5930 5926 5922 5918 5914 5908 5903 5898
5852 5860 5867 5877 5881 5880 5876 5874 5894 5890 5893 5889 5892 5894 5898 5901 5905 5909 5913 5916 5921 5925 5928 5931 5934 5936 5937 5938 5939 5939 5940 5940 5941 5941 5941 5940 5939 5938 5936 5934 5932 5928 5925 5921 5917 5912 5906 5901 5895
5847 5854 5862 5868 5873 5878 5875 5881 5876 5888 5886 5888 5890 5891 5894 5898 5903 5907 5912 5915 5920 5924 5927 5930 5932 5935 5936 5937 5938 5938 5939 5939 5940 5940 5940 5939 5938 5937 5935 5933 5929 5926 5923 5919 5915 5910 5905 5899 5892
Wind_Speed
6 10 14 15 14 11 8 9 10 8 14 18 16 17 17 8 10 8 9 9 8 8 9 10 10 11 9 9 9 9 8 6 8 6 6 5 4 7 8 11 10 9 8 9 9 8 7 7 8
6 9 11 12 7 11 12 10 8 7 14 15 14 13 14 14 10 10 7 6 7 8 8 9 9 8 7 8 8 10 9 8 9 7 6 5 7 9 7 10 9 8 8 8 8 7 5 4 5
8 10 16 9 10 8 8 11 8 9 14 13 14 11 10 10 10 8 7 6 6 7 6 8 8 5 6 8 9 10 10 9 11 11 9 5 8 6 1 6 6 6 8 9 10 10 9 8 5
7 7 8 8 4 8 8 8 7 10 11 14 13 13 11 6 2 5 6 7 6 6 6 7 5 5 7 6 8 8 10 9 10 11 9 9 9 16 7 4 6 8 9 12 19 16 13 11 9
10 4 11 9 6 9 10 11 8 8 9 11 13 12 13 8 1 5 8 6 5 6 7 5 5 6 6 6 6 8 7 6 8 10 9 10 9 4 4 5 7 9 11 16 14 15 11 11 11
9 12 5 7 7 6 8 12 8 4 4 8 12 14 16 8 2 5 9 7 7 4 5 5 6 6 5 6 5 7 6 6 9 11 11 8 6 1 6 7 10 13 11 7 14 17 13 7 8
5 4 5 2 6 6 7 8 10 7 6 5 10 13 14 8 6 8 10 4 7 8 5 5 6 5 5 4 5 7 7 8 10 12 12 11 9 7 8 9 6 6 7 12 14 16 16 15 13
5 10 3 3 5 3 10 10 10 7 7 6 3 9 9 7 7 10 11 7 8 6 5 4 5 5 3 4 7 8 8 8 8 11 15 17 15 13 12 19 18 16 12 12 13 14 14 13 13
10 13 3 3 2 5 11 11 12 10 9 8 5 6 6 8 11 9 10 12 8 5 6 6 5 5 6 8 8 9 8 8 10 11 14 16 16 16 15 15 15 13 10 10 12 13 13 13 15
5 0 4 6 12 12 11 8 9 10 10 9 8 6 8 11 7 7 10 13 8 5 8 7 6 6 8 9 10 9 8 8 10 11 13 15 17 18 12 12 12 11 11 11 11 10 10 11 12
2 5 5 3 5 3 4 3 3 4 8 10 11 11 10 11 10 8 15 12 8 6 7 7 6 6 5 9 8 7 8 10 11 9 10 12 12 11 8 11 11 11 10 10 10 10 10 10 9
4 8 6 4 6 4 4 2 2 5 6 6 10 13 12 12 12 11 15 12 6 5 6 6 5 4 2 5 8 7 8 8 10 10 10 9 9 10 11 11 12 12 11 10 9 8 9 8 9
3 7 6 7 8 5 3 1 2 4 6 8 9 11 12 12 15 14 15 11 8 7 8 5 5 3 4 6 10 10 9 9 8 9 9 8 8 11 13 15 15 14 14 13 14 13 12 11 12
11 4 6 8 6 5 2 1 3 4 7 9 11 11 12 15 15 15 12 11 11 10 7 9 7 7 8 11 12 14 14 12 10 10 8 8 10 11 14 16 17 16 15 15 14 12 12 12 13
7 4 4 6 5 4 3 5 4 6 6 8 10 12 13 15 17 16 12 12 13 9 10 11 9 9 11 11 13 14 15 13 11 9 9 9 12 14 16 17 19 17 16 14 14 14 13 11 11
8 7 5 14 7 5 4 7 7 7 7 7 9 10 15 16 21 15 14 14 17 9 13 12 12 11 11 12 13 12 10 10 8 5 7 11 13 13 14 15 15 16 15 13 12 11 11 11 11
6 8 16 4 10 7 6 14 8 8 9 7 7 10 13 17 17 17 18 18 18 13 14 14 14 13 12 12 11 10 9 8 6 4 8 10 10 12 15 17 16 15 14 14 13 12 12 11 10
13 10 9 11 21 9 7 9 7 9 9 8 6 8 11 15 21 21 21 19 17 18 16 16 16 14 13 11 9 7 8 8 6 6 8 9 15 18 18 18 18 18 18 17 17 17 14 14 14
21 17 13 13 14 13 8 8 9 9 8 8 5 7 11 16 19 20 20 19 19 20 20 19 17 16 13 10 7 7 7 6 6 6 8 12 14 17 19 18 18 19 19 20 21 20 20 19 17
25 7 17 11 22 18 9 13 16 6 8 9 7 6 11 15 16 19 21 20 22 23 20 20 19 17 14 11 8 7 7 7 6 8 11 14 16 18 20 21 21 20 19 19 19 19 19 19 21
21 17 13 12 17 17 11 10 13 12 10 8 7 6 10 14 17 21 22 23 23 22 22 22 20 17 14 10 8 7 7 7 7 10 12 14 16 19 23 24 25 25 24 21 19 18 19 22 24
22 19 18 17 16 11 23 11 9 19 11 10 5 7 10 13 17 20 22 25 24 23 24 23 20 16 13 10 7 7 8 8 10 11 15 15 17 20 23 24 25 26 27 26 24 20 19 22 25
27 19 20 18 15 15 18 13 7 25 12 12 10 9 11 14 16 19 22 25 24 23 24 23 18 14 11 9 8 8 9 9 10 13 14 15 17 20 22 24 26 27 28 28 28 26 21 22 25
26 22 20 20 15 19 17 19 11 18 17 15 14 12 11 14 16 20 25 27 24 24 24 21 17 14 12 10 9 11 11 10 10 11 13 14 17 19 21 23 25 27 28 28 29 28 26 25 24
31 27 26 20 20 18 18 21 21 23 15 17 16 16 14 14 15 16 28 27 25 25 23 19 15 14 12 10 10 12 12 10 10 10 12 15 16 17 19 21 23 25 28 30 31 31 29 26 24
35 33 29 22 15 15 27 22 24 11 14 16 17 18 16 16 17 18 27 31 30 27 23 18 16 13 12 11 10 11 10 9 9 9 11 13 14 15 16 19 21 24 27 31 33 33 31 27 25
35 41 32 24 22 17 35 12 16 16 18 16 18 19 19 20 20 22 27 30 30 28 23 19 15 13 11 10 9 9 9 9 8 8 9 11 10 11 14 18 21 25 27 29 34 35 33 29 27
39 33 36 32 29 31 23 22 19 16 14 17 22 21 21 25 24 25 27 27 27 26 22 18 15 13 11 9 8 9 9 9 8 8 8 8 7 8 11 14 20 24 28 28 33 35 35 30 28
47 40 37 29 27 27 22 8 17 16 14 26 23 22 24 27 27 26 27 26 26 24 20 17 15 12 10 8 8 9 10 10 10 8 7 6 9 13 15 15 20 24 29 31 33 37 35 31 29
47 43 37 36 32 27 25 18 18 24 29 21 21 19 21 31 29 27 27 27 25 22 20 17 15 13 12 9 8 9 11 11 11 9 7 7 9 11 14 17 20 24 29 32 35 39 36 31 29
Wind_Direction
90 121 114 105 51 103 124 115 125 122 155 141 142 137 161 150 118 148 143 123 116 105 101 101 98 93 97 91 81 72 62 64 51 39 47 64 75 27 12 22 27 30 40 43 32 21 31 44 41
106 127 135 104 55 101 118 128 114 129 134 153 146 128 149 168 155 164 145 126 115 109 109 100 96 101 95 84 70 53 36 30 22 16 13 15 6 11 38 31 29 32 24 9 5 348 345 353 8
115 118 142 301 144 139 129 141 144 143 153 147 157 150 148 143 174 177 171 150 136 120 108 94 87 85 75 61 56 39 15 14 357 357 351 359 352 320 4 359 8 9 350 349 348 330 309 307 293
94 104 115 87 205 162 141 168 142 158 167 162 180 169 165 169 184 188 190 178 153 122 109 85 90 81 66 55 40 17 2 7 12 14 353 330 329 340 65 27 7 350 336 331 326 309 296 291 292
97 78 108 351 227 203 174 170 182 169 175 198 183 194 181 157 33 191 206 172 155 138 104 105 96 70 62 44 27 14 12 24 18 18 11 346 324 335 7 328 326 335 330 331 12 20 310 289 290
118 32 62 38 293 231 192 177 175 187 201 190 202 206 191 184 218 174 196 186 166 143 134 99 84 69 47 38 30 26 40 38 36 31 35 22 54 339 318 310 292 304 329 37 21 27 37 22 350
143 322 69 17 322 290 233 199 183 189 215 216 207 200 215 202 167 153 147 198 153 139 129 85 73 58 54 36 40 40 38 41 43 44 49 51 50 31 2 342 44 34 98 52 34 38 48 58 55
83 99 70 337 210 200 239 226 200 209 202 227 220 210 216 176 214 185 143 140 125 124 92 81 72 49 65 41 36 43 47 54 57 68 64 55 49 55 55 65 70 62 58 41 34 42 49 54 54
83 87 36 216 245 175 239 221 216 206 217 210 212 219 187 156 143 149 169 151 147 112 94 97 82 87 64 49 49 49 55 63 73 84 63 62 64 78 63 67 61 61 59 41 41 39 48 49 49
115 305 249 203 257 225 219 212 217 217 217 227 217 217 208 190 192 160 164 161 158 125 108 103 92 86 78 52 58 63 76 74 75 77 70 62 60 50 45 56 53 50 44 44 39 40 43 51 53
118 309 223 239 194 175 182 193 195 229 234 230 231 223 221 218 211 207 173 179 174 134 122 101 86 90 76 45 57 71 79 73 68 78 63 61 63 64 45 49 39 38 27 26 24 26 37 41 48
147 259 183 185 190 176 166 161 210 199 247 241 235 232 221 223 217 215 188 189 192 152 157 97 90 99 76 35 46 71 90 90 74 74 60 51 50 44 45 52 50 44 47 45 43 39 44 39 43
147 220 225 209 192 173 167 198 256 240 247 237 225 222 220 213 217 215 215 203 197 189 168 117 115 111 111 65 53 65 95 109 95 75 58 39 42 65 54 43 42 53 49 46 54 57 59 52 53
190 217 235 235 194 150 125 330 320 299 284 263 245 229 212 211 208 218 219 200 186 181 170 134 137 128 108 77 73 76 91 106 98 76 55 42 51 44 32 42 48 49 52 49 53 63 56 57 59
199 185 228 248 213 158 58 344 316 312 299 287 257 240 220 211 202 208 197 196 189 177 156 148 146 141 102 91 82 89 102 107 101 87 49 49 50 42 43 42 44 49 49 47 52 56 57 54 52
186 198 287 268 262 205 96 258 308 315 295 279 274 251 228 206 208 193 192 195 187 176 162 155 152 132 114 103 91 92 100 108 103 85 43 42 46 41 46 46 45 42 48 51 46 37 37 38 30
240 201 250 187 287 245 202 360 275 296 294 272 273 271 239 219 196 186 184 182 184 181 168 161 147 132 131 118 104 101 103 105 96 74 48 43 44 57 54 49 45 46 43 36 32 30 26 25 15
216 241 231 223 286 242 256 267 282 290 290 282 256 265 236 208 181 186 184 184 185 178 170 161 147 141 138 129 114 111 97 93 90 80 56 56 73 66 58 54 51 51 48 37 27 23 20 16 12
243 184 205 268 268 265 259 249 274 277 276 279 259 234 214 189 183 187 187 183 179 174 173 156 150 147 145 139 125 112 98 92 98 90 80 78 67 63 58 57 55 52 48 46 41 36 29 21 11
254 201 208 235 252 277 247 273 278 291 273 273 256 219 211 195 192 186 178 173 172 172 166 156 153 150 148 136 130 120 111 104 110 107 91 81 68 61 64 65 59 51 45 39 37 39 35 28 18
222 219 242 249 263 275 272 259 298 284 271 264 241 210 199 189 179 178 174 171 170 169 164 158 155 152 143 143 134 128 125 128 130 98 91 78 75 70 71 66 60 54 47 40 33 31 29 24 20
220 228 224 235 242 256 257 256 231 296 257 241 204 192 187 189 179 183 179 173 170 168 163 156 156 150 146 142 142 141 132 120 115 105 94 90 86 80 70 62 55 47 42 38 32 26 23 21 17
219 214 243 251 240 244 282 287 236 278 244 231 208 189 191 188 180 185 181 176 173 168 163 160 156 150 152 150 151 157 139 122 110 108 101 99 87 72 62 53 47 41 36 31 27 22 17 18 16
214 211 235 241 241 249 246 236 241 257 272 233 214 198 197 198 188 193 188 179 176 174 165 160 158 157 155 164 165 162 145 125 119 113 102 94 79 64 54 45 35 31 27 23 19 18 12 11 11
208 211 228 234 235 249 239 233 214 183 225 246 222 206 198 202 192 189 191 182 181 176 168 165 165 164 166 168 166 162 143 132 129 113 100 89 73 57 46 37 29 22 18 14 11 10 8 7 4
210 208 219 224 233 248 248 208 219 256 222 226 223 212 196 194 191 181 177 178 176 176 173 174 179 174 175 175 165 157 138 134 129 113 98 88 72 53 37 26 20 12 9 8 5 2 6 3 359
211 211 212 224 236 256 237 208 211 233 238 230 225 213 198 192 193 179 173 175 175 177 178 186 186 181 183 181 165 153 141 140 133 117 103 90 69 44 24 14 11 6 1 360 0 357 360 0 355
211 218 211 213 230 257 232 202 223 240 221 250 222 217 203 195 197 185 181 179 183 182 185 191 190 189 191 183 168 152 141 142 139 127 106 85 51 26 11 8 5 360 357 352 354 355 354 354 350
212 211 218 220 224 248 234 182 212 206 227 240 225 219 209 201 197 194 188 184 189 192 195 193 194 196 196 186 176 159 146 144 141 132 101 70 43 20 7 0 359 354 351 349 345 351 351 350 349
218 215 211 216 215 224 228 206 218 223 240 242 224 227 220 202 195 195 193 190 194 197 198 192 196 201 203 195 184 167 152 145 131 116 97 55 25 1 352 349 349 349 345 346 343 346 347 346 344